Oakes, ND

12:23 PM CST on November 22, 2019 (GMT -0600)
Oakes

Weather History for K2D5 - September, 2019

Change the Weather History Date:

Wednesday, September 18, 2019

  Actual Average (KP67) Record (KP67)
Temperature  
Mean Temperature 68 °F -  
Max Temperature 80 °F 69 °F 82 °F (1997)
Min Temperature 57 °F 45 °F 44 °F (1996)
Cooling Degree Days 4    
Growing Degree Days 18 (Base 50)    
Moisture  
Dew Point 61 °F    
Average Humidity 79    
Maximum Humidity 100    
Minimum Humidity 51    
Precipitation  
Precipitation 0.00 in - - ()
Sea Level Pressure  
Sea Level Pressure 29.78 in    
Wind  
Wind Speed 14 mph (SW)    
Max Wind Speed 24 mph    
Max Gust Speed 31 mph    
Visibility 10 miles    
Events Thunderstorm    
Averages and records for this station are not official NWS values.
T = Trace of Precipitation, MM = Missing Value Source: NWS Daily Summary

Daily Weather History Graph

Daily Weather History Graph

Search for Another Location

Airport or City:

Astronomy

Sep. 18, 2019 Rise Set
Actual Time 7:13 AM CDT 7:38 PM CDT
Civil Twilight 6:43 AM CDT 8:08 PM CDT
Nautical Twilight 6:08 AM CDT 8:43 PM CDT
Astronomical Twilight 5:31 AM CDT 9:20 PM CDT
Moon 9:59 PM CDT (9/18) 11:31 AM CDT (9/18)
Length of Visible Light 13h 24m
Length of Day
12h 24m
Waning Gibbous, 82% of the Moon is Illuminated
Sep 18
Waning Gibbous
Sep 21
Last Quarter
Sep 28
New
Oct 5
First Quarter
Oct 13
Full

Hourly Weather History & Observations

Time (CDT) Temp. Heat Index Dew Point Humidity Pressure Visibility Wind Dir Wind Speed Gust Speed Precip Events Conditions
12:15 AM 77.0 °F - 71.6 °F 83% 29.65 in 9.0 mi South 24.2 mph - N/A   Clear
12:35 AM 77.0 °F - 71.6 °F 83% 29.64 in 9.0 mi North - - N/A   Clear
12:55 AM 77.0 °F - 69.8 °F 78% 29.64 in 9.0 mi SSW 20.7 mph 29.9 mph N/A   Partly Cloudy
1:15 AM 75.2 °F - 68.0 °F 78% 29.68 in 9.0 mi South 21.9 mph 29.9 mph N/A   Mostly Cloudy
1:35 AM 71.6 °F - 66.2 °F 83% 29.69 in 5.0 mi SSW 20.7 mph 31.1 mph N/A Thunderstorm Overcast
1:55 AM 68.0 °F - 68.0 °F 100% 29.68 in 4.0 mi South 8.1 mph 17.3 mph N/A   Overcast
2:15 AM 68.0 °F - 68.0 °F 100% 29.63 in 8.0 mi East 6.9 mph - N/A   Overcast
2:35 AM 68.0 °F - 68.0 °F 100% 29.67 in 10.0 mi SSW 11.5 mph 18.4 mph N/A   Scattered Clouds
2:55 AM 68.0 °F - 66.2 °F 94% 29.67 in 10.0 mi South 15.0 mph - N/A   Clear
3:15 AM 66.2 °F - 66.2 °F 100% 29.67 in 10.0 mi SSW 10.4 mph 18.4 mph N/A   Clear
3:35 AM 64.4 °F - 64.4 °F 100% 29.68 in 10.0 mi SSW 11.5 mph - N/A   Clear
3:55 AM 64.4 °F - 64.4 °F 100% 29.68 in 10.0 mi SSW 11.5 mph - N/A   Clear
4:15 AM 64.4 °F - 64.4 °F 100% 29.68 in 10.0 mi SSW 12.7 mph - N/A   Clear
4:35 AM 64.4 °F - 64.4 °F 100% 29.67 in 10.0 mi SSW 12.7 mph - N/A   Clear
4:55 AM 64.4 °F - 64.4 °F 100% 29.68 in 10.0 mi SW 11.5 mph - N/A   Partly Cloudy
5:15 AM 62.6 °F - 62.6 °F 100% 29.69 in 10.0 mi SW 11.5 mph - N/A   Clear
5:35 AM 62.6 °F - 62.6 °F 100% 29.69 in 10.0 mi SW 8.1 mph - N/A   Clear
5:55 AM 60.8 °F - 60.8 °F 100% 29.70 in 10.0 mi SSW 8.1 mph - N/A   Partly Cloudy
6:15 AM 60.8 °F - 60.8 °F 100% 29.71 in 10.0 mi SSW 9.2 mph - N/A   Clear
6:35 AM 60.8 °F - 57.2 °F 88% 29.72 in 10.0 mi SW 11.5 mph 17.3 mph N/A   Clear
6:55 AM 59.0 °F - 55.4 °F 88% 29.73 in 10.0 mi SW 11.5 mph - N/A   Clear
7:15 AM 57.2 °F - 55.4 °F 94% 29.74 in 10.0 mi SW 6.9 mph - N/A   Clear
7:35 AM 57.2 °F - 55.4 °F 94% 29.76 in 10.0 mi SW 11.5 mph - N/A   Clear
7:55 AM 59.0 °F - 55.4 °F 88% 29.77 in 10.0 mi WSW 10.4 mph 18.4 mph N/A   Clear
8:15 AM 59.0 °F - 55.4 °F 88% 29.77 in 10.0 mi WSW 13.8 mph - N/A   Clear
8:35 AM 60.8 °F - 55.4 °F 82% 29.77 in 10.0 mi SW 12.7 mph 19.6 mph N/A   Clear
8:55 AM 60.8 °F - 55.4 °F 82% 29.77 in 10.0 mi SSW 13.8 mph 20.7 mph N/A   Clear
9:15 AM 62.6 °F - 55.4 °F 77% 29.76 in 10.0 mi SW 16.1 mph - N/A   Clear
9:35 AM 62.6 °F - 55.4 °F 77% 29.76 in 10.0 mi SSW 15.0 mph 24.2 mph N/A   Clear
9:55 AM 62.6 °F - 55.4 °F 77% 29.76 in 10.0 mi SW 15.0 mph 23.0 mph N/A   Clear
10:15 AM 64.4 °F - 57.2 °F 77% 29.77 in 10.0 mi SW 18.4 mph - N/A   Clear
10:35 AM 64.4 °F - 57.2 °F 77% 29.77 in 10.0 mi WSW 18.4 mph 27.6 mph N/A   Clear
10:55 AM 66.2 °F - 59.0 °F 78% 29.77 in 10.0 mi SW 15.0 mph 24.2 mph N/A   Clear
11:15 AM 68.0 °F - 59.0 °F 73% 29.77 in 10.0 mi WSW 17.3 mph - N/A   Clear
11:35 AM 69.8 °F - 59.0 °F 68% 29.78 in 10.0 mi WSW 18.4 mph 25.3 mph N/A   Clear
11:55 AM 71.6 °F - 59.0 °F 64% 29.78 in 10.0 mi WSW 19.6 mph - N/A   Scattered Clouds
12:15 PM 71.6 °F - 59.0 °F 64% 29.79 in 10.0 mi WSW 20.7 mph 29.9 mph N/A   Mostly Cloudy
12:35 PM 71.6 °F - 60.8 °F 69% 29.79 in 10.0 mi West 23.0 mph 28.8 mph N/A   Scattered Clouds
12:55 PM 73.4 °F - 60.8 °F 65% 29.80 in 10.0 mi WSW 16.1 mph 24.2 mph N/A   Clear
1:15 PM 73.4 °F - 60.8 °F 65% 29.81 in 10.0 mi West 17.3 mph - N/A   Scattered Clouds
1:35 PM 73.4 °F - 62.6 °F 69% 29.81 in 10.0 mi West 11.5 mph 20.7 mph N/A   Mostly Cloudy
1:55 PM 75.2 °F - 62.6 °F 65% 29.81 in 9.0 mi WSW 11.5 mph 19.6 mph N/A   Mostly Cloudy
2:15 PM 75.2 °F - 60.8 °F 61% 29.81 in 10.0 mi WSW 12.7 mph - N/A   Mostly Cloudy
2:35 PM 77.0 °F - 60.8 °F 57% 29.81 in 10.0 mi WSW 13.8 mph 20.7 mph N/A   Partly Cloudy
2:55 PM 77.0 °F - 62.6 °F 61% 29.81 in 10.0 mi SW 15.0 mph 21.9 mph N/A   Clear
3:15 PM 78.8 °F - 62.6 °F 57% 29.80 in 10.0 mi SSW 15.0 mph - N/A   Clear
3:55 PM 80.6 °F 81.5 °F 60.8 °F 51% 29.81 in 10.0 mi WSW 15.0 mph - N/A   Clear
4:15 PM 80.6 °F 81.5 °F 60.8 °F 51% 29.81 in 10.0 mi WSW 16.1 mph - N/A   Clear
4:35 PM 80.6 °F 81.5 °F 60.8 °F 51% 29.82 in 10.0 mi WSW 13.8 mph - N/A   Clear
4:55 PM 80.6 °F 81.5 °F 60.8 °F 51% 29.82 in 10.0 mi WSW 15.0 mph - N/A   Clear
5:15 PM 80.6 °F 81.5 °F 60.8 °F 51% 29.82 in 10.0 mi WSW 13.8 mph 21.9 mph N/A   Clear
5:35 PM 80.6 °F 81.5 °F 60.8 °F 51% 29.83 in 10.0 mi WSW 12.7 mph - N/A   Clear
5:55 PM 80.6 °F 81.5 °F 60.8 °F 51% 29.84 in 10.0 mi West 12.7 mph 18.4 mph N/A   Partly Cloudy
6:15 PM 78.8 °F - 62.6 °F 57% 29.84 in 10.0 mi West 9.2 mph - N/A   Clear
6:35 PM 77.0 °F - 64.4 °F 65% 29.85 in 10.0 mi West 5.8 mph - N/A   Clear
6:55 PM 75.2 °F - 62.6 °F 65% 29.85 in 10.0 mi West 8.1 mph - N/A   Clear
7:15 PM 73.4 °F - 62.6 °F 69% 29.86 in 10.0 mi West 6.9 mph - N/A   Clear
7:35 PM 71.6 °F - 62.6 °F 73% 29.86 in 9.0 mi WSW 8.1 mph - N/A   Clear
7:55 PM 69.8 °F - 62.6 °F 78% 29.87 in 10.0 mi WSW 9.2 mph - N/A   Clear
8:15 PM 69.8 °F - 60.8 °F 73% 29.88 in 10.0 mi WSW 8.1 mph - N/A   Clear
8:35 PM 68.0 °F - 60.8 °F 78% 29.89 in 10.0 mi WSW 8.1 mph - N/A   Clear
8:55 PM 68.0 °F - 60.8 °F 78% 29.89 in 10.0 mi WSW 8.1 mph - N/A   Clear
9:15 PM 66.2 °F - 60.8 °F 83% 29.90 in 10.0 mi SW 8.1 mph - N/A   Clear
9:35 PM 66.2 °F - 60.8 °F 83% 29.91 in 10.0 mi SW 8.1 mph - N/A   Clear
9:55 PM 66.2 °F - 60.8 °F 83% 29.91 in 10.0 mi WSW 8.1 mph - N/A   Clear
10:15 PM 64.4 °F - 60.8 °F 88% 29.91 in 10.0 mi WSW 5.8 mph - N/A   Clear
10:35 PM 64.4 °F - 60.8 °F 88% 29.91 in 10.0 mi West 4.6 mph - N/A   Clear
10:55 PM 62.6 °F - 60.8 °F 94% 29.92 in 10.0 mi West 4.6 mph - N/A   Clear
11:15 PM 62.6 °F - 60.8 °F 94% 29.92 in 10.0 mi WNW 5.8 mph - N/A   Clear
11:35 PM 60.8 °F - 60.8 °F 100% 29.93 in 9.0 mi West 4.6 mph - N/A   Clear
11:55 PM 60.8 °F - 60.8 °F 100% 29.93 in 10.0 mi WSW 3.5 mph - N/A   Clear